Change the Weather History Date:

Monday, June 24, 2013

  Actual Average Record
Temperature  
Mean Temperature 75 °F -  
Max Temperature 82 °F 72 °F 84 °F (2010)
Min Temperature 68 °F 59 °F 52 °F (1988)
Cooling Degree Days 10    
Growing Degree Days 25 (Base 50)    
Moisture  
Dew Point 68 °F    
Average Humidity 85    
Maximum Humidity 96    
Minimum Humidity 69    
Precipitation  
Precipitation 0.01 in - - ()
Sea Level Pressure  
Sea Level Pressure 30.00 in    
Wind  
Wind Speed 9 mph (SW)    
Max Wind Speed 15 mph    
Max Gust Speed 31 mph    
Visibility 5 miles    
Events Fog , Thunderstorm    
Averages and records for this station are not official NWS values.
T = Trace of Precipitation, MM = Missing Value Source: NWS Daily Summary

Daily Weather History Graph

Daily Weather History Graph

Search for Another Location

Airport or City:

Trip Planner

Search our weather history database for the weather conditions in past years. The results will help you decide how hot, cold, wet, or windy it might be!

Date:

Astronomy

Jun. 24, 2013 Rise Set
Actual Time 5:06 AM EDT 8:18 PM EDT
Civil Twilight 4:32 AM EDT 8:52 PM EDT
Nautical Twilight 3:48 AM EDT 9:36 PM EDT
Astronomical Twilight 2:55 AM EDT 10:29 PM EDT
Moon 9:16 PM EDT (6/24) 6:31 AM EDT (6/24)
Length of Visible Light 16h 20m
Length of Day
15h 12m
Full, 98% of the Moon is Illuminated
Jun 24
Full
Jun 30
Last Quarter
Jul 8
New
Jul 15
First Quarter
Jul 22
Full

Hourly Weather History & Observations

Time (EDT) Temp. Heat Index Dew Point Humidity Pressure Visibility Wind Dir Wind Speed Gust Speed Precip Events Conditions
12:52 AM 69.1 °F - 66.9 °F 93% 30.07 in 7.0 mi SW 8.1 mph 19.6 mph N/A   Overcast
1:32 AM 68.0 °F - 66.2 °F 94% 30.06 in 1.8 mi SW 12.7 mph 24.2 mph N/A   Overcast
1:52 AM 69.1 °F - 66.9 °F 93% 30.07 in 1.0 mi WSW 10.4 mph 17.3 mph N/A   Mist
2:52 AM 68.0 °F - 66.9 °F 96% 30.06 in 2.0 mi SW 9.2 mph 20.7 mph N/A   Overcast
3:06 AM 68.0 °F - 66.2 °F 94% 30.06 in 4.0 mi WSW 8.1 mph - N/A   Overcast
3:52 AM 68.0 °F - 66.9 °F 96% 30.06 in 3.0 mi Variable 6.9 mph - N/A   Overcast
4:02 AM 69.8 °F - 66.2 °F 88% 30.05 in 2.5 mi SW 6.9 mph 17.3 mph N/A   Overcast
4:40 AM 69.8 °F - 66.2 °F 88% 30.04 in 1.8 mi SW 6.9 mph - N/A   Overcast
4:52 AM 68.0 °F - 66.9 °F 96% 30.04 in 1.2 mi SW 8.1 mph - N/A   Overcast
5:31 AM 68.0 °F - 66.2 °F 94% 30.03 in 0.5 mi SW 6.9 mph - N/A Fog Fog
5:44 AM 68.0 °F - 66.2 °F 94% 30.03 in 0.2 mi Variable 6.9 mph - N/A Fog Fog
5:52 AM 68.0 °F - 66.9 °F 96% 30.03 in 0.5 mi SW 8.1 mph 16.1 mph N/A Fog Fog
6:52 AM 68.0 °F - 66.9 °F 96% 30.01 in 0.5 mi SW 9.2 mph 17.3 mph N/A Fog Fog
7:17 AM 68.0 °F - 66.2 °F 94% 30.02 in 1.2 mi SW 9.2 mph 18.4 mph N/A   Overcast
7:31 AM 68.0 °F - 66.2 °F 94% 30.02 in 0.8 mi SW 12.7 mph 19.6 mph N/A   Overcast
7:52 AM 68.0 °F - 66.9 °F 96% 30.03 in 0.5 mi SW 10.4 mph 18.4 mph N/A Fog Fog
8:34 AM 69.8 °F - 66.2 °F 88% 30.02 in 1.0 mi SW 6.9 mph - N/A   Overcast
8:52 AM 70.0 °F - 68.0 °F 93% 30.02 in 1.5 mi SW 8.1 mph - N/A   Overcast
9:22 AM 69.8 °F - 68.0 °F 94% 30.01 in 3.0 mi SW 6.9 mph 17.3 mph N/A   Overcast
9:52 AM 71.1 °F - 68.0 °F 90% 30.01 in 5.0 mi SW 8.1 mph 16.1 mph N/A   Overcast
10:50 AM 75.2 °F - 69.8 °F 83% 29.99 in 10.0 mi SW 8.1 mph 16.1 mph N/A   Partly Cloudy
10:52 AM 77.0 °F - 70.0 °F 79% 30.00 in 10.0 mi SW 8.1 mph 16.1 mph N/A   Partly Cloudy
11:52 AM 80.1 °F 83.2 °F 70.0 °F 71% 29.99 in 10.0 mi SW 9.2 mph 18.4 mph N/A   Clear
12:52 PM 81.0 °F 84.9 °F 71.1 °F 72% 29.97 in 10.0 mi SW 8.1 mph 17.3 mph N/A   Clear
1:52 PM 82.0 °F 86.3 °F 71.1 °F 69% 29.96 in 10.0 mi SW 9.2 mph 17.3 mph N/A   Clear
2:52 PM 82.0 °F 86.3 °F 71.1 °F 69% 29.95 in 10.0 mi SW 11.5 mph 20.7 mph N/A   Clear
3:52 PM 80.1 °F 83.2 °F 70.0 °F 71% 29.93 in 10.0 mi WSW 10.4 mph 20.7 mph N/A   Clear
4:52 PM 80.1 °F 83.2 °F 70.0 °F 71% 29.91 in 10.0 mi SW 9.2 mph 17.3 mph N/A   Clear
5:52 PM 78.1 °F - 69.1 °F 74% 29.91 in 10.0 mi SW 6.9 mph 20.7 mph N/A   Clear
6:52 PM 78.1 °F - 69.1 °F 74% 29.91 in 10.0 mi Variable 6.9 mph - N/A   Clear
7:52 PM 78.1 °F - 69.1 °F 74% 29.91 in 10.0 mi WSW 5.8 mph - N/A   Clear
8:52 PM 77.0 °F - 69.1 °F 76% 29.92 in 10.0 mi WSW 8.1 mph - N/A   Clear
9:52 PM 79.0 °F - 68.0 °F 69% 29.96 in 10.0 mi Variable 5.8 mph - N/A   Mostly Cloudy
10:18 PM 73.4 °F - 64.4 °F 73% 29.97 in 7.0 mi NW 15.0 mph 31.1 mph N/A Thunderstorm Thunderstorm
10:52 PM 71.1 °F - 64.9 °F 81% 29.95 in 10.0 mi WNW 6.9 mph - 0.01 in   Scattered Clouds
11:52 PM 70.0 °F - 64.0 °F 81% 29.92 in 10.0 mi Calm Calm - N/A   Clear